,,,PA_Meas_PMT16A,,PR_Meas_QMR101_102,,RH_Meas_QMH101,,SR_Meas_QMS101,,TA_Meas_QMH101,,GenWind,,GenWind,
date,time,status,PA,status,PR,status,RH,status,SR,status,TA,status,DirAvg,status,SpdAvg,
2010-11-29, 00:00:04,VALID,1002.35,VALID,0,INVALID,163.701,VALID,0,VALID,23.6646,VALID,9,VALID,0.519531,
2010-11-29, 00:01:04,VALID,1002.34,VALID,0,INVALID,163.708,VALID,0,VALID,23.6646,VALID,23,VALID,0.600391,
2010-11-29, 00:02:04,VALID,1002.32,VALID,0,INVALID,163.708,VALID,0,VALID,23.6434,VALID,23,VALID,0.696484,
2010-11-29, 00:03:04,VALID,1002.31,VALID,0,INVALID,163.716,VALID,0,VALID,23.6646,VALID,23,VALID,0.632813,
2010-11-29, 00:04:04,VALID,1002.3,VALID,0,INVALID,163.708,VALID,0,VALID,23.6452,VALID,23,VALID,0.588281,
2010-11-29, 00:05:04,VALID,1002.29,VALID,0,INVALID,163.708,VALID,0,VALID,23.6628,VALID,23,VALID,0.557031,
2010-11-29, 00:06:04,VALID,1002.29,VALID,0,INVALID,163.708,VALID,0,VALID,23.661,VALID,23,VALID,0.391406,
2010-11-29, 00:07:04,VALID,1002.28,VALID,0,INVALID,163.723,VALID,0,VALID,23.6823,VALID,23,VALID,0.436719,
2010-11-29, 00:08:04,VALID,1002.26,VALID,0,INVALID,163.693,VALID,0,VALID,23.6823,VALID,23,VALID,0.376563,
2010-11-29, 00:09:04,VALID,1002.25,VALID,0,INVALID,163.731,VALID,0,VALID,23.6416,VALID,23,VALID,0.274219,
2010-11-29, 00:10:04,VALID,1002.29,VALID,0,INVALID,163.723,VALID,0.100563,VALID,23.6434,VALID,23,VALID,0.03125,
2010-11-29, 00:11:04,VALID,1002.25,VALID,0,INVALID,163.701,VALID,0.100563,VALID,23.6221,VALID,23,VALID,0,
2010-11-29, 00:12:04,VALID,1002.23,VALID,0,INVALID,163.723,VALID,0,VALID,23.6434,VALID,23,VALID,0,
2010-11-29, 00:13:04,VALID,1002.19,VALID,0,INVALID,163.693,VALID,0,VALID,23.6628,VALID,23,VALID,0,
2010-11-29, 00:14:04,VALID,1002.15,VALID,0,INVALID,163.693,VALID,0,VALID,23.6823,VALID,23,VALID,0.0386719,
2010-11-29, 00:15:04,VALID,1002.1,VALID,0,INVALID,163.731,VALID,0,VALID,23.6823,VALID,23,VALID,0.273828,
2010-11-29, 00:16:04,VALID,1002.07,VALID,0,INVALID,163.693,VALID,0.100563,VALID,23.6628,VALID,23,VALID,0.334766,
2010-11-29, 00:17:04,VALID,1002.04,VALID,0,INVALID,163.708,VALID,0.100563,VALID,23.6434,VALID,23,VALID,0.459766,
2010-11-29, 00:18:04,VALID,1002,VALID,0,INVALID,163.708,VALID,0,VALID,23.5832,VALID,23,VALID,0.404687,
2010-11-29, 00:19:04,VALID,1001.99,VALID,0,INVALID,163.708,VALID,0,VALID,23.6452,VALID,23,VALID,0.404297,
2010-11-29, 00:20:04,VALID,1001.97,VALID,0,INVALID,163.723,VALID,0,VALID,23.6434,VALID,23,VALID,0,
2010-11-29, 00:21:04,VALID,1001.97,VALID,0,INVALID,163.708,VALID,0,VALID,23.6628,VALID,23,VALID,0,
2010-11-29, 00:22:04,VALID,1001.96,VALID,0,INVALID,163.701,VALID,0,VALID,23.7017,VALID,23,VALID,0,
2010-11-29, 00:23:04,VALID,1001.96,VALID,0,INVALID,163.716,VALID,0,VALID,23.7389,VALID,23,VALID,0,
2010-11-29, 00:24:04,VALID,1001.94,VALID,0,INVALID,163.731,VALID,0,VALID,23.7796,VALID,23,VALID,0,
2010-11-29, 00:25:04,VALID,1001.95,VALID,0,INVALID,163.723,VALID,0,VALID,23.8185,VALID,23,VALID,0,
2010-11-29, 00:26:04,VALID,1001.94,VALID,0,INVALID,163.693,VALID,0,VALID,23.8167,VALID,23,VALID,0,
2010-11-29, 00:27:04,VALID,1001.94,VALID,0,INVALID,163.708,VALID,0,VALID,23.8575,VALID,23,VALID,0,
2010-11-29, 00:28:04,VALID,1001.95,VALID,0,INVALID,163.708,VALID,0,VALID,23.8787,VALID,23,VALID,0,
2010-11-29, 00:29:04,VALID,1001.94,VALID,0,INVALID,163.708,VALID,0.100563,VALID,23.8556,VALID,23,VALID,0.301953,
2010-11-29, 00:30:04,VALID,1001.92,VALID,0,INVALID,163.716,VALID,0.100563,VALID,23.8167,VALID,20,VALID,0.55,
2010-11-29, 00:31:04,VALID,1001.94,VALID,0,INVALID,163.716,VALID,0.100563,VALID,23.7814,VALID,15,VALID,0.513672,
2010-11-29, 00:32:04,VALID,1001.91,VALID,0,INVALID,163.678,VALID,0,VALID,23.7212,VALID,5,VALID,0.801953,
2010-11-29, 00:33:04,VALID,1001.91,VALID,0,INVALID,163.731,VALID,0,VALID,23.7017,VALID,5,VALID,0.46875,
2010-11-29, 00:34:04,VALID,1001.92,VALID,0,INVALID,163.708,VALID,0.100563,VALID,23.6416,VALID,5,VALID,0.541797,
2010-11-29, 00:35:04,VALID,1001.92,VALID,0,INVALID,163.693,VALID,0,VALID,23.6416,VALID,5,VALID,0.376563,
2010-11-29, 00:36:04,VALID,1001.95,VALID,0,INVALID,163.723,VALID,0,VALID,23.6221,VALID,5,VALID,0.525391,
2010-11-29, 00:37:04,VALID,1001.9,VALID,0,INVALID,163.701,VALID,0,VALID,23.6628,VALID,5,VALID,0.385938,
2010-11-29, 00:38:04,VALID,1001.91,VALID,0,INVALID,163.723,VALID,0,VALID,23.6628,VALID,5,VALID,0.172266,
2010-11-29, 00:39:04,VALID,1001.94,VALID,0,INVALID,163.67,VALID,0.100563,VALID,23.661,VALID,5,VALID,0.359375,
2010-11-29, 00:40:04,VALID,1001.93,VALID,0,INVALID,163.716,VALID,0,VALID,23.6416,VALID,5,VALID,0.423438,
2010-11-29, 00:41:04,VALID,1001.94,VALID,0,INVALID,163.731,VALID,0,VALID,23.6823,VALID,5,VALID,0.294922,
2010-11-29, 00:42:04,VALID,1001.91,VALID,0,INVALID,163.701,VALID,0,VALID,23.661,VALID,5,VALID,0.316016,
2010-11-29, 00:43:04,VALID,1001.94,VALID,0,INVALID,163.693,VALID,0,VALID,23.6823,VALID,5,VALID,0.4875,
2010-11-29, 00:44:04,VALID,1001.9,VALID,0,INVALID,163.701,VALID,0,VALID,23.7194,VALID,4,VALID,0.279297,
2010-11-29, 00:45:04,VALID,1001.88,VALID,0,INVALID,163.693,VALID,0,VALID,23.7601,VALID,5,VALID,0.167578,
2010-11-29, 00:46:04,VALID,1001.88,VALID,0,INVALID,163.708,VALID,0,VALID,23.7778,VALID,5,VALID,0.340234,
2010-11-29, 00:47:04,VALID,1001.85,VALID,0,INVALID,163.716,VALID,0,VALID,23.7991,VALID,5,VALID,0.221094,
2010-11-29, 00:48:04,VALID,1001.83,VALID,0,INVALID,163.701,VALID,0.100563,VALID,23.7973,VALID,5,VALID,0.185937,
2010-11-29, 00:49:04,VALID,1001.82,VALID,0,INVALID,163.723,VALID,0,VALID,23.7796,VALID,5,VALID,0.208203,
2010-11-29, 00:50:04,VALID,1001.8,VALID,0,INVALID,163.701,VALID,0,VALID,23.7583,VALID,5,VALID,0.105078,
2010-11-29, 00:51:04,VALID,1001.78,VALID,0,INVALID,163.708,VALID,0,VALID,23.7601,VALID,5,VALID,0,
2010-11-29, 00:52:04,VALID,1001.79,VALID,0,INVALID,163.701,VALID,0,VALID,23.7212,VALID,4,VALID,0,
2010-11-29, 00:53:04,VALID,1001.78,VALID,0,INVALID,163.693,VALID,0,VALID,23.7,VALID,5,VALID,0,
2010-11-29, 00:54:04,VALID,1001.76,VALID,0,INVALID,163.723,VALID,0.100563,VALID,23.6416,VALID,5,VALID,0,
2010-11-29, 00:55:04,VALID,1001.75,VALID,0,INVALID,163.716,VALID,0,VALID,23.6434,VALID,5,VALID,0,
2010-11-29, 00:56:04,VALID,1001.73,VALID,0,INVALID,163.716,VALID,0,VALID,23.6026,VALID,5,VALID,0,
2010-11-29, 00:57:04,VALID,1001.75,VALID,0,INVALID,163.731,VALID,0,VALID,23.6239,VALID,5,VALID,0,
2010-11-29, 00:58:04,VALID,1001.77,VALID,0,INVALID,163.708,VALID,0,VALID,23.6434,VALID,5,VALID,0,
2010-11-29, 00:59:04,VALID,1001.77,VALID,0,INVALID,163.716,VALID,0,VALID,23.5832,VALID,5,VALID,0,
2010-11-29, 01:00:04,VALID,1001.76,VALID,0,INVALID,163.723,VALID,0,VALID,23.6044,VALID,5,VALID,0,
2010-11-29, 01:01:04,VALID,1001.77,VALID,0,INVALID,163.716,VALID,0,VALID,23.6044,VALID,5,VALID,0,
2010-11-29, 01:02:04,VALID,1001.78,VALID,0,INVALID,163.708,VALID,0,VALID,23.585,VALID,5,VALID,0,
2010-11-29, 01:03:04,VALID,1001.72,VALID,0,INVALID,163.685,VALID,0,VALID,23.5655,VALID,5,VALID,0,
2010-11-29, 01:04:04,VALID,1001.73,VALID,0,INVALID,163.708,VALID,0,VALID,23.585,VALID,5,VALID,0,
2010-11-29, 01:05:04,VALID,1001.71,VALID,0,INVALID,163.754,VALID,0.100563,VALID,23.6044,VALID,5,VALID,0,
2010-11-29, 01:06:04,VALID,1001.7,VALID,0,INVALID,163.723,VALID,0.100563,VALID,23.6026,VALID,4,VALID,0,
2010-11-29, 01:07:04,VALID,1001.71,VALID,0,INVALID,163.701,VALID,0,VALID,23.6628,VALID,5,VALID,0.394531,
2010-11-29, 01:08:04,VALID,1001.72,VALID,0,INVALID,163.723,VALID,0,VALID,23.6823,VALID,4,VALID,0.301172,
2010-11-29, 01:09:04,VALID,1001.7,VALID,0,INVALID,163.716,VALID,0,VALID,23.6823,VALID,5,VALID,0.374219,
2010-11-29, 01:10:04,VALID,1001.73,VALID,0,INVALID,163.716,VALID,0,VALID,23.6823,VALID,5,VALID,0.565234,
2010-11-29, 01:11:04,VALID,1001.71,VALID,0,INVALID,163.739,VALID,0,VALID,23.6434,VALID,5,VALID,0.395703,
2010-11-29, 01:12:04,VALID,1001.73,VALID,0,INVALID,163.723,VALID,0,VALID,23.6239,VALID,5,VALID,0.355078,
2010-11-29, 01:13:04,VALID,1001.73,VALID,0,INVALID,163.708,VALID,0,VALID,23.6044,VALID,5,VALID,0.457031,
2010-11-29, 01:14:04,VALID,1001.72,VALID,0,INVALID,163.723,VALID,0.100563,VALID,23.6044,VALID,5,VALID,0.516797,
2010-11-29, 01:15:04,VALID,1001.72,VALID,0,INVALID,163.701,VALID,0,VALID,23.5637,VALID,5,VALID,0.482031,
2010-11-29, 01:16:04,VALID,1001.71,VALID,0,INVALID,163.708,VALID,0.100563,VALID,23.585,VALID,5,VALID,0.370313,
2010-11-29, 01:17:04,VALID,1001.65,VALID,0,INVALID,163.708,VALID,0,VALID,23.585,VALID,5,VALID,0.339453,
2010-11-29, 01:18:04,VALID,1001.67,VALID,0,INVALID,163.716,VALID,0,VALID,23.5655,VALID,5,VALID,0.226172,
2010-11-29, 01:19:04,VALID,1001.66,VALID,0,INVALID,163.731,VALID,0,VALID,23.5868,VALID,5,VALID,0.145313,
2010-11-29, 01:20:04,VALID,1001.66,VALID,0,INVALID,163.708,VALID,0,VALID,23.5655,VALID,5,VALID,0,
2010-11-29, 01:21:04,VALID,1001.62,VALID,0,INVALID,163.731,VALID,0,VALID,23.6044,VALID,5,VALID,0,
2010-11-29, 01:22:04,VALID,1001.63,VALID,0,INVALID,163.716,VALID,0,VALID,23.585,VALID,5,VALID,0,
2010-11-29, 01:23:04,VALID,1001.63,VALID,0,INVALID,163.723,VALID,0.100563,VALID,23.5832,VALID,5,VALID,0,
2010-11-29, 01:24:04,VALID,1001.62,VALID,0,INVALID,163.693,VALID,0,VALID,23.6026,VALID,5,VALID,0,
2010-11-29, 01:25:04,VALID,1001.6,VALID,0,INVALID,163.708,VALID,0,VALID,23.6239,VALID,5,VALID,0,
2010-11-29, 01:26:04,VALID,1001.56,VALID,0,INVALID,163.739,VALID,0,VALID,23.6239,VALID,5,VALID,0,
2010-11-29, 01:27:04,VALID,1001.55,VALID,0,INVALID,163.739,VALID,0,VALID,23.6823,VALID,5,VALID,0,
2010-11-29, 01:28:04,VALID,1001.54,VALID,0,INVALID,163.723,VALID,0,VALID,23.6805,VALID,5,VALID,0,
2010-11-29, 01:29:04,VALID,1001.53,VALID,0,INVALID,163.723,VALID,0,VALID,23.7212,VALID,5,VALID,0.178125,
2010-11-29, 01:30:04,VALID,1001.54,VALID,0,INVALID,163.708,VALID,0,VALID,23.7017,VALID,5,VALID,0.346094,
2010-11-29, 01:31:04,VALID,1001.57,VALID,0,INVALID,163.708,VALID,0.100563,VALID,23.6628,VALID,5,VALID,0.342187,
2010-11-29, 01:32:04,VALID,1001.5,VALID,0,INVALID,163.708,VALID,0,VALID,23.6239,VALID,4,VALID,0.440625,
2010-11-29, 01:33:04,VALID,1001.51,VALID,0,INVALID,163.731,VALID,0.100563,VALID,23.6026,VALID,5,VALID,0.513281,
2010-11-29, 01:34:04,VALID,1001.49,VALID,0,INVALID,163.723,VALID,0,VALID,23.6026,VALID,3,VALID,0.369922,
2010-11-29, 01:35:04,VALID,1001.46,VALID,0,INVALID,163.716,VALID,0,VALID,23.6026,VALID,3,VALID,0.333594,
2010-11-29, 01:36:04,VALID,1001.45,VALID,0,INVALID,163.716,VALID,0.100563,VALID,23.5832,VALID,3,VALID,0.330078,
2010-11-29, 01:37:04,VALID,1001.47,VALID,0,INVALID,163.708,VALID,0.100563,VALID,23.5443,VALID,3,VALID,0.245312,
2010-11-29, 01:38:04,VALID,1001.47,VALID,0,INVALID,163.693,VALID,0.100563,VALID,23.5248,VALID,3,VALID,0.342187,
2010-11-29, 01:39:04,VALID,1001.48,VALID,0,INVALID,163.716,VALID,0.100563,VALID,23.5266,VALID,3,VALID,0.24375,
2010-11-29, 01:40:04,VALID,1001.45,VALID,0,INVALID,163.716,VALID,0,VALID,23.5284,VALID,3,VALID,0.150781,
2010-11-29, 01:41:04,VALID,1001.42,VALID,0,INVALID,163.723,VALID,0,VALID,23.5071,VALID,3,VALID,0.283984,
2010-11-29, 01:42:04,VALID,1001.41,VALID,0,INVALID,163.678,VALID,0,VALID,23.4877,VALID,3,VALID,0.398047,
2010-11-29, 01:43:04,VALID,1001.43,VALID,0,INVALID,163.754,VALID,0,VALID,23.4505,VALID,3,VALID,0.4125,
2010-11-29, 01:44:04,VALID,1001.44,VALID,0,INVALID,163.739,VALID,0,VALID,23.4505,VALID,3,VALID,0.542969,
2010-11-29, 01:45:04,VALID,1001.42,VALID,0,INVALID,163.716,VALID,0,VALID,23.4311,VALID,3,VALID,0.547266,
2010-11-29, 01:46:04,VALID,1001.4,VALID,0,INVALID,163.716,VALID,0,VALID,23.4505,VALID,3,VALID,0.425781,
2010-11-29, 01:47:04,VALID,1001.36,VALID,0,INVALID,163.739,VALID,0,VALID,23.4293,VALID,3,VALID,0.470313,
2010-11-29, 01:48:04,VALID,1001.35,VALID,0,INVALID,163.716,VALID,0,VALID,23.4505,VALID,3,VALID,0.487891,
2010-11-29, 01:49:04,VALID,1001.36,VALID,0,INVALID,163.716,VALID,0,VALID,23.4505,VALID,3,VALID,0.556641,
2010-11-29, 01:50:04,VALID,1001.33,VALID,0,INVALID,163.739,VALID,0,VALID,23.4894,VALID,3,VALID,0.522266,
2010-11-29, 01:51:04,VALID,1001.33,VALID,0,INVALID,163.723,VALID,0,VALID,23.4894,VALID,3,VALID,0.372656,
2010-11-29, 01:52:04,VALID,1001.33,VALID,0,INVALID,163.708,VALID,0,VALID,23.4894,VALID,3,VALID,0.416016,
2010-11-29, 01:53:04,VALID,1001.3,VALID,0,INVALID,163.731,VALID,0,VALID,23.4877,VALID,3,VALID,0.244141,
2010-11-29, 01:54:04,VALID,1001.34,VALID,0,INVALID,163.708,VALID,0,VALID,23.5284,VALID,3,VALID,0.424219,
2010-11-29, 01:55:04,VALID,1001.31,VALID,0,INVALID,163.716,VALID,0,VALID,23.5071,VALID,3,VALID,0.294922,
2010-11-29, 01:56:04,VALID,1001.29,VALID,0,INVALID,163.739,VALID,0,VALID,23.5089,VALID,3,VALID,0.0664063,
2010-11-29, 01:57:04,VALID,1001.25,VALID,0,INVALID,163.708,VALID,0,VALID,23.4877,VALID,3,VALID,0.0460938,
2010-11-29, 01:58:04,VALID,1001.23,VALID,0,INVALID,163.723,VALID,0,VALID,23.4877,VALID,3,VALID,0.339063,
2010-11-29, 01:59:04,VALID,1001.2,VALID,0,INVALID,163.731,VALID,0,VALID,23.5089,VALID,3,VALID,0.359375,
2010-11-29, 02:00:04,VALID,1001.17,VALID,0,INVALID,163.708,VALID,0,VALID,23.4894,VALID,3,VALID,0.3875,
2010-11-29, 02:01:04,VALID,1001.18,VALID,0,INVALID,163.723,VALID,0,VALID,23.4894,VALID,3,VALID,0.296484,
2010-11-29, 02:02:04,VALID,1001.14,VALID,0,INVALID,163.739,VALID,0,VALID,23.4682,VALID,3,VALID,0,
2010-11-29, 02:03:04,VALID,1001.17,VALID,0,INVALID,163.723,VALID,0,VALID,23.4487,VALID,3,VALID,0.00429688,
2010-11-29, 02:04:04,VALID,1001.14,VALID,0,INVALID,163.708,VALID,0,VALID,23.4682,VALID,3,VALID,0,
2010-11-29, 02:05:04,VALID,1001.14,VALID,0,INVALID,163.754,VALID,0,VALID,23.4487,VALID,3,VALID,0,
2010-11-29, 02:06:04,VALID,1001.15,VALID,0,INVALID,163.731,VALID,0,VALID,23.4505,VALID,3,VALID,0,
2010-11-29, 02:07:04,VALID,1001.16,VALID,0,INVALID,163.746,VALID,0,VALID,23.4311,VALID,3,VALID,0,
2010-11-29, 02:08:04,VALID,1001.16,VALID,0,INVALID,163.708,VALID,0,VALID,23.4293,VALID,3,VALID,0.449219,
2010-11-29, 02:09:04,VALID,1001.18,VALID,0,INVALID,163.746,VALID,0,VALID,23.47,VALID,3,VALID,0.520703,
2010-11-29, 02:10:04,VALID,1001.2,VALID,0,INVALID,163.723,VALID,0,VALID,23.4877,VALID,3,VALID,0.442578,
2010-11-29, 02:11:04,VALID,1001.16,VALID,0,INVALID,163.723,VALID,0,VALID,23.4682,VALID,3,VALID,0.439844,
2010-11-29, 02:12:04,VALID,1001.12,VALID,0,INVALID,163.723,VALID,0,VALID,23.4487,VALID,3,VALID,0.328516,
2010-11-29, 02:13:04,VALID,1001.12,VALID,0,INVALID,163.731,VALID,0,VALID,23.4505,VALID,3,VALID,0.238281,
2010-11-29, 02:14:04,VALID,1001.14,VALID,0,INVALID,163.754,VALID,0,VALID,23.4487,VALID,3,VALID,0.222656,
2010-11-29, 02:15:04,VALID,1001.13,VALID,0,INVALID,163.716,VALID,0,VALID,23.4682,VALID,3,VALID,0.160547,
2010-11-29, 02:16:04,VALID,1001.13,VALID,0,INVALID,163.708,VALID,0,VALID,23.4682,VALID,3,VALID,0.318359,
2010-11-29, 02:17:04,VALID,1001.15,VALID,0,INVALID,163.723,VALID,0,VALID,23.47,VALID,3,VALID,0.475781,
2010-11-29, 02:18:04,VALID,1001.11,VALID,0,INVALID,163.739,VALID,0,VALID,23.4293,VALID,3,VALID,0.338281,
2010-11-29, 02:19:04,VALID,1001.1,VALID,0,INVALID,163.723,VALID,0,VALID,23.4505,VALID,3,VALID,0.341797,
2010-11-29, 02:20:04,VALID,1001.07,VALID,0,INVALID,163.723,VALID,0,VALID,23.4293,VALID,3,VALID,0.462109,
2010-11-29, 02:21:04,VALID,1001.07,VALID,0,INVALID,163.739,VALID,0,VALID,23.4293,VALID,3,VALID,0.304297,
2010-11-29, 02:22:04,VALID,1001.06,VALID,0,INVALID,163.739,VALID,0,VALID,23.4098,VALID,3,VALID,0.321875,
2010-11-29, 02:23:04,VALID,1001.04,VALID,0,INVALID,163.731,VALID,0,VALID,23.4098,VALID,3,VALID,0.448438,
2010-11-29, 02:24:04,VALID,1001.07,VALID,0,INVALID,163.693,VALID,0,VALID,23.3727,VALID,3,VALID,0.326172,
2010-11-29, 02:25:04,VALID,1001.01,VALID,0,INVALID,163.731,VALID,0,VALID,23.332,VALID,3,VALID,0.367969,
2010-11-29, 02:26:04,VALID,1001.01,VALID,0,INVALID,163.739,VALID,0,VALID,23.3125,VALID,3,VALID,0.355469,
2010-11-29, 02:27:04,VALID,1001.01,VALID,0,INVALID,163.746,VALID,0,VALID,23.2931,VALID,3,VALID,0.296094,
2010-11-29, 02:28:04,VALID,1001,VALID,0,INVALID,163.739,VALID,0,VALID,23.3709,VALID,3,VALID,0.269531,
2010-11-29, 02:29:04,VALID,1000.98,VALID,0,INVALID,163.731,VALID,0,VALID,23.3904,VALID,3,VALID,0.316406,
2010-11-29, 02:30:04,VALID,1000.96,VALID,0,INVALID,163.754,VALID,0,VALID,23.4505,VALID,3,VALID,0.234766,
2010-11-29, 02:31:04,VALID,1000.95,VALID,0,INVALID,163.731,VALID,0,VALID,23.4505,VALID,3,VALID,0.26875,
2010-11-29, 02:32:04,VALID,1000.9,VALID,0,INVALID,163.739,VALID,0,VALID,23.4293,VALID,3,VALID,0.329688,
2010-11-29, 02:33:04,VALID,1000.9,VALID,0,INVALID,163.708,VALID,0,VALID,23.4098,VALID,3,VALID,0.253906,
2010-11-29, 02:34:04,VALID,1000.83,VALID,0,INVALID,163.739,VALID,0,VALID,23.3709,VALID,3,VALID,0.00195313,
2010-11-29, 02:35:04,VALID,1000.84,VALID,0,INVALID,163.739,VALID,0,VALID,23.3709,VALID,3,VALID,0,
2010-11-29, 02:36:04,VALID,1000.8,VALID,0,INVALID,163.731,VALID,0,VALID,23.3709,VALID,3,VALID,0,
2010-11-29, 02:37:04,VALID,1000.79,VALID,0,INVALID,163.716,VALID,0,VALID,23.4098,VALID,3,VALID,0,
2010-11-29, 02:38:04,VALID,1000.78,VALID,0,INVALID,163.731,VALID,0,VALID,23.4098,VALID,3,VALID,0,
2010-11-29, 02:39:04,VALID,1000.79,VALID,0,INVALID,163.723,VALID,0,VALID,23.4293,VALID,3,VALID,0,
2010-11-29, 02:40:04,VALID,1000.79,VALID,0,INVALID,163.731,VALID,0,VALID,23.4487,VALID,3,VALID,0,
2010-11-29, 02:41:04,VALID,1000.79,VALID,0,INVALID,163.716,VALID,0,VALID,23.47,VALID,3,VALID,0,
2010-11-29, 02:42:04,VALID,1000.8,VALID,0,INVALID,163.716,VALID,0,VALID,23.4293,VALID,3,VALID,0,
2010-11-29, 02:43:04,VALID,1000.8,VALID,0,INVALID,163.723,VALID,0,VALID,23.4505,VALID,3,VALID,0,
2010-11-29, 02:44:04,VALID,1000.78,VALID,0,INVALID,163.754,VALID,0,VALID,23.4293,VALID,3,VALID,0,
2010-11-29, 02:45:04,VALID,1000.77,VALID,0,INVALID,163.754,VALID,0,VALID,23.3886,VALID,3,VALID,0,
2010-11-29, 02:46:04,VALID,1000.78,VALID,0,INVALID,163.739,VALID,0,VALID,23.3691,VALID,3,VALID,0,
2010-11-29, 02:47:04,VALID,1000.79,VALID,0,INVALID,163.731,VALID,0,VALID,23.3514,VALID,3,VALID,0,
2010-11-29, 02:48:04,VALID,1000.79,VALID,0,INVALID,163.746,VALID,0,VALID,23.332,VALID,3,VALID,0,
2010-11-29, 02:49:04,VALID,1000.8,VALID,0,INVALID,163.739,VALID,0,VALID,23.2931,VALID,3,VALID,0,
2010-11-29, 02:50:04,VALID,1000.81,VALID,0,INVALID,163.731,VALID,0,VALID,23.2931,VALID,3,VALID,0,
2010-11-29, 02:51:04,VALID,1000.82,VALID,0,INVALID,163.746,VALID,0,VALID,23.3125,VALID,3,VALID,0,
2010-11-29, 02:52:04,VALID,1000.82,VALID,0,INVALID,163.708,VALID,0,VALID,23.3337,VALID,3,VALID,0,
2010-11-29, 02:53:04,VALID,1000.82,VALID,0,INVALID,163.723,VALID,0,VALID,23.332,VALID,3,VALID,0,
2010-11-29, 02:54:04,VALID,1000.8,VALID,0,INVALID,163.723,VALID,0,VALID,23.3532,VALID,3,VALID,0,
2010-11-29, 02:55:04,VALID,1000.79,VALID,0,INVALID,163.746,VALID,0,VALID,23.3532,VALID,3,VALID,0,
2010-11-29, 02:56:04,VALID,1000.77,VALID,0,INVALID,163.716,VALID,0,VALID,23.3532,VALID,3,VALID,0,
2010-11-29, 02:57:04,VALID,1000.73,VALID,0,INVALID,163.723,VALID,0,VALID,23.332,VALID,3,VALID,0,
2010-11-29, 02:58:04,VALID,1000.75,VALID,0,INVALID,163.723,VALID,0,VALID,23.3727,VALID,3,VALID,0,
2010-11-29, 02:59:04,VALID,1000.76,VALID,0,INVALID,163.723,VALID,0,VALID,23.3921,VALID,3,VALID,0,
2010-11-29, 03:00:04,VALID,1000.76,VALID,0,INVALID,163.739,VALID,0,VALID,23.4116,VALID,3,VALID,0,
2010-11-29, 03:01:04,VALID,1000.76,VALID,0,INVALID,163.723,VALID,0,VALID,23.4098,VALID,3,VALID,0,
2010-11-29, 03:02:04,VALID,1000.76,VALID,0,INVALID,163.723,VALID,0,VALID,23.4293,VALID,3,VALID,0,
2010-11-29, 03:03:04,VALID,1000.77,VALID,0,INVALID,163.701,VALID,0,VALID,23.4098,VALID,3,VALID,0,
2010-11-29, 03:04:04,VALID,1000.77,VALID,0,INVALID,163.708,VALID,0,VALID,23.4311,VALID,3,VALID,0,
2010-11-29, 03:05:04,VALID,1000.76,VALID,0,INVALID,163.731,VALID,0,VALID,23.4293,VALID,3,VALID,0,
2010-11-29, 03:06:04,VALID,1000.75,VALID,0,INVALID,163.723,VALID,0,VALID,23.47,VALID,3,VALID,0,
2010-11-29, 03:07:04,VALID,1000.7,VALID,0,INVALID,163.739,VALID,0,VALID,23.4505,VALID,3,VALID,0,
2010-11-29, 03:08:04,VALID,1000.67,VALID,0,INVALID,163.716,VALID,0,VALID,23.4718,VALID,3,VALID,0,
2010-11-29, 03:09:04,VALID,1000.66,VALID,0,INVALID,163.716,VALID,0,VALID,23.4311,VALID,3,VALID,0,
2010-11-29, 03:10:04,VALID,1000.66,VALID,0,INVALID,163.716,VALID,0,VALID,23.4116,VALID,3,VALID,0,
2010-11-29, 03:11:04,VALID,1000.64,VALID,0,INVALID,163.731,VALID,0,VALID,23.3709,VALID,3,VALID,0,
2010-11-29, 03:12:04,VALID,1000.63,VALID,0,INVALID,163.746,VALID,0,VALID,23.3921,VALID,3,VALID,0,
2010-11-29, 03:13:04,VALID,1000.62,VALID,0,INVALID,163.731,VALID,0,VALID,23.3727,VALID,3,VALID,0,
2010-11-29, 03:14:04,VALID,1000.61,VALID,0,INVALID,163.746,VALID,0,VALID,23.332,VALID,3,VALID,0,
2010-11-29, 03:15:04,VALID,1000.61,VALID,0,INVALID,163.716,VALID,0,VALID,23.3709,VALID,3,VALID,0,
2010-11-29, 03:16:04,VALID,1000.6,VALID,0,INVALID,163.716,VALID,0,VALID,23.3921,VALID,3,VALID,0,
2010-11-29, 03:17:04,VALID,1000.59,VALID,0,INVALID,163.746,VALID,0,VALID,23.4116,VALID,3,VALID,0,
2010-11-29, 03:18:04,VALID,1000.59,VALID,0,INVALID,163.716,VALID,0,VALID,23.4311,VALID,3,VALID,0,
2010-11-29, 03:19:04,VALID,1000.6,VALID,0,INVALID,163.716,VALID,0,VALID,23.4894,VALID,3,VALID,0,
2010-11-29, 03:20:04,VALID,1000.57,VALID,0,INVALID,163.708,VALID,0,VALID,23.4877,VALID,3,VALID,0,
2010-11-29, 03:21:04,VALID,1000.6,VALID,0,INVALID,163.716,VALID,0,VALID,23.4877,VALID,3,VALID,0,
2010-11-29, 03:22:04,VALID,1000.58,VALID,0,INVALID,163.716,VALID,0,VALID,23.5089,VALID,3,VALID,0,
2010-11-29, 03:23:04,VALID,1000.61,VALID,0,INVALID,163.723,VALID,0,VALID,23.47,VALID,3,VALID,0,
2010-11-29, 03:24:04,VALID,1000.58,VALID,0,INVALID,163.731,VALID,0,VALID,23.4116,VALID,3,VALID,0,
2010-11-29, 03:25:04,VALID,1000.53,VALID,0,INVALID,163.716,VALID,0,VALID,23.3921,VALID,3,VALID,0,
2010-11-29, 03:26:04,VALID,1000.52,VALID,0,INVALID,163.762,VALID,0,VALID,23.3532,VALID,3,VALID,0,
2010-11-29, 03:27:04,VALID,1000.54,VALID,0,INVALID,163.731,VALID,0,VALID,23.3143,VALID,2,VALID,0.807813,
2010-11-29, 03:28:04,VALID,1000.49,VALID,0,INVALID,163.731,VALID,0,VALID,23.2931,VALID,358,VALID,0.792188,
2010-11-29, 03:29:04,VALID,1000.55,VALID,0,INVALID,163.723,VALID,0,VALID,23.2754,VALID,357,VALID,0.570313,
2010-11-29, 03:30:04,VALID,1000.55,VALID,0,INVALID,163.723,VALID,0,VALID,23.2736,VALID,357,VALID,0.448047,
2010-11-29, 03:31:04,VALID,1000.56,VALID,0,INVALID,163.739,VALID,0,VALID,23.2948,VALID,357,VALID,0.247656,
2010-11-29, 03:32:04,VALID,1000.6,VALID,0,INVALID,163.723,VALID,0,VALID,23.2754,VALID,357,VALID,0.257031,
2010-11-29, 03:33:04,VALID,1000.62,VALID,0,INVALID,163.731,VALID,0,VALID,23.2541,VALID,357,VALID,0.0382813,
2010-11-29, 03:34:04,VALID,1000.61,VALID,0,INVALID,163.716,VALID,0,VALID,23.3143,VALID,357,VALID,0,
2010-11-29, 03:35:04,VALID,1000.59,VALID,0,INVALID,163.754,VALID,0,VALID,23.3337,VALID,357,VALID,0,
2010-11-29, 03:36:04,VALID,1000.6,VALID,0,INVALID,163.716,VALID,0,VALID,23.316,VALID,357,VALID,0.628125,
2010-11-29, 03:37:04,VALID,1000.58,VALID,0,INVALID,163.754,VALID,0,VALID,23.2948,VALID,357,VALID,0.616406,
2010-11-29, 03:38:04,VALID,1000.58,VALID,0,INVALID,163.723,VALID,0,VALID,23.3143,VALID,356,VALID,0.817969,
2010-11-29, 03:39:04,VALID,1000.56,VALID,0,INVALID,163.739,VALID,0,VALID,23.2931,VALID,356,VALID,0.701953,
2010-11-29, 03:40:04,VALID,1000.57,VALID,0,INVALID,163.723,VALID,0,VALID,23.2754,VALID,356,VALID,0.657031,
2010-11-29, 03:41:04,VALID,1000.62,VALID,0,INVALID,163.746,VALID,0,VALID,23.2754,VALID,356,VALID,0.512891,
2010-11-29, 03:42:04,VALID,1000.67,VALID,0,INVALID,163.769,VALID,0,VALID,23.2948,VALID,356,VALID,0.244531,
2010-11-29, 03:43:04,VALID,1000.69,VALID,0,INVALID,163.754,VALID,0,VALID,23.2541,VALID,356,VALID,0.222656,
2010-11-29, 03:44:04,VALID,1000.71,VALID,0,INVALID,163.762,VALID,0,VALID,23.2736,VALID,356,VALID,0.0277344,
2010-11-29, 03:45:04,VALID,1000.69,VALID,0,INVALID,163.731,VALID,0,VALID,23.2736,VALID,356,VALID,0,
2010-11-29, 03:46:04,VALID,1000.69,VALID,0,INVALID,163.731,VALID,0,VALID,23.3143,VALID,356,VALID,0,
2010-11-29, 03:47:04,VALID,1000.69,VALID,0,INVALID,163.731,VALID,0,VALID,23.3143,VALID,356,VALID,0.361719,
2010-11-29, 03:48:04,VALID,1000.68,VALID,0,INVALID,163.731,VALID,0,VALID,23.3143,VALID,356,VALID,0.568359,